Regional Weather Roundup
Issued by NWS

Home | Current Version | Previous Version | Graphics & Text | Print | Product List | Glossary On
Versions: 1 2 3 4 5 6 7 8 9 10 11 12 13 14 15 16 17 18 19 20 21 22 23 24 25 26 27
000
ASUS45 KBOI 262310
RWRID

IDAHO REGIONAL WEATHER ROUNDUP
NATIONAL WEATHER SERVICE BOISE ID
500 PM MDT FRI MAY 26 2017

NOTE: "FAIR" INDICATES FEW OR NO CLOUDS BELOW 12000 FEET
WITH NO SIGNIFICANT WEATHER AND/OR OBSTRUCTIONS TO VISIBILITY

IDZ012-014-270000-
SOUTHWEST IDAHO


CITY           SKY/WX    TMP DP  RH WIND       PRES   REMARKS
BOISE          MOSUNNY   71  39  31 NW16      29.90F
CALDWELL       SUNNY     72  41  32 W13       29.91F
MOUNTAIN HOME  MOSUNNY   70  38  30 NW16G23   29.91S
$$

IDZ016-017-270000-
SOUTHCENTRAL IDAHO


CITY           SKY/WX    TMP DP  RH WIND       PRES   REMARKS
BURLEY         PTSUNNY   51  45  79 SE8       29.98F
JEROME         PTSUNNY   58  46  64 NW5       29.97S
TWIN FALLS     MOSUNNY   59  44  57 NW7       29.97S
$$

IDZ019>023-270000-
SOUTHEAST IDAHO


CITY           SKY/WX    TMP DP  RH WIND       PRES   REMARKS
IDAHO FALLS    LGT RAIN  44  41  89 NW6       30.00R
POCATELLO      CLOUDY    46  42  86 N7        30.01R
REXBURG        LGT RAIN  44  43  96 SW7       29.98R
$$

IDZ006-010-011-018-031-032-270000-
CENTRAL IDAHO MOUNTAINS


CITY           SKY/WX    TMP DP  RH WIND       PRES   REMARKS
MCCALL         LGT RAIN  59  33  37 N6        29.96R
HAILEY         PTSUNNY   54  43  66 SE12      29.99R
STANLEY          N/A     45  38  76 S9        30.01R
SALMON         MOSUNNY   64  34  32 N14G20    29.88S
CHALLIS        CLOUDY    60  32  34 W10       29.93R
$$

IDZ002-004-006-007-026-270000-
NORTHERN IDAHO


CITY           SKY/WX    TMP DP  RH WIND       PRES   REMARKS
LEWISTON       SUNNY     76  41  28 W10       29.92S
LOWELL           N/A     69  41  36 VRB5      29.92R
COEUR D`ALENE  MOSUNNY   71  42  35 SW10      29.93S
MULLAN PASS    LGT RAIN  49  33  54 N5        30.02R
$$




USA.gov is the U.S. government's official web portal to all federal, state and local government web resources and services.